This demonstration page uses our WeatherBlox Daily Observations layout. Learn more.

Left ArrowRight Arrow

39.29038, -76.61219

Hourly Observations for March 13, 2018

Temp ( °F °C ) Dew Point ( °F °C ) Humidity (%) Winds ( mph kmh ) Pressure ( in mb ) Visibility ( mi km ) Precip ( " mm )
12:54 am 00:54 undefined 36 2.2 32 0 86 86 undefined N/A 29.77 1008 N/A 0.00 0.00
1:54 am 01:54 undefined 36 2.2 31 -0.6 82 82 undefined N/A 29.77 1008 N/A 0.00 0.00
2:54 am 02:54 undefined 36 2.2 31 -0.6 82 82 undefined N/A 29.76 1008 N/A 0.00 0.00
3:54 am 03:54 undefined 35 1.7 29 -1.7 78 78 undefined N/A 29.75 1007 N/A 0.00 0.00
4:54 am 04:54 undefined 35 1.7 28 -2.2 76 76 undefined N/A 29.74 1007 N/A 0.00 0.00
5:54 am 05:54 undefined 35 1.7 26 -3.3 70 70 undefined N/A 29.75 1008 N/A 0.00 0.00
6:54 am 06:54 undefined 35 1.7 25 -3.9 67 67 undefined N/A 29.76 1008 N/A 0.00 0.00
7:54 am 07:54 undefined 35 1.7 22 -5.6 59 59 undefined N/A 29.79 1009 N/A 0.00 0.00
8:54 am 08:54 undefined 36 2.2 21 -6.1 55 55 undefined N/A 29.80 1009 N/A 0.00 0.00
9:54 am 09:54 undefined 37 2.8 20 -6.7 50 50 undefined N/A 29.82 1010 N/A 0.00 0.00
10:54 am 10:54 undefined 38 3.3 18 -7.8 44 44 undefined N/A 29.82 1010 N/A 0.00 0.00
11:54 am 11:54 undefined 40 4.4 17 -8.3 40 40 undefined N/A 29.82 1010 N/A 0.00 0.00
12:54 pm 12:54 undefined 42 5.6 16 -8.9 35 35 undefined N/A 29.82 1010 N/A 0.00 0.00
1:54 pm 13:54 undefined 43 6.1 17 -8.3 35 35 undefined N/A 29.81 1010 N/A 0.00 0.00
2:54 pm 14:54 undefined 43 6.1 16 -8.9 34 34 undefined N/A 29.81 1010 N/A 0.00 0.00
3:54 pm 15:54 undefined 43 6.1 16 -8.9 34 34 undefined N/A 29.82 1010 N/A 0.00 0.00
4:54 pm 16:54 undefined 43 6.1 15 -9.4 32 32 undefined N/A 29.82 1010 N/A 0.00 0.00
5:54 pm 17:54 undefined 43 6.1 14 -10 31 31 undefined N/A 29.83 1010 N/A 0.00 0.00
6:54 pm 18:54 undefined 43 6.1 12 -11.1 28 28 undefined N/A 29.83 1010 N/A 0.00 0.00
7:54 pm 19:54 undefined 41 5 12 -11.1 30 30 undefined N/A 29.84 1011 N/A 0.00 0.00
8:54 pm 20:54 undefined 40 4.4 14 -10 35 35 undefined N/A 29.85 1011 N/A 0.00 0.00
9:54 pm 21:54 undefined 39 3.9 15 -9.4 38 38 undefined N/A 29.86 1011 N/A 0.00 0.00
10:54 pm 22:54 undefined 38 3.3 17 -8.3 43 43 undefined N/A 29.85 1011 N/A 0.00 0.00
11:54 pm 23:54 undefined 37 2.8 18 -7.8 46 46 undefined N/A 29.85 1011 N/A 0.00 0.00

Powered by AerisWeather